Stations météo

Publicité
Berus, Allemagne (10704): Température de l'air & dewpoint: 14.08.2019 14:00:00 - 20.08.2019 14:00:00 (CEST)Berus, Allemagne (10704): Température de l'air 5cm & Température de l'air -5cm: 14.08.2019 14:00:00 - 20.08.2019 14:00:00 (CEST)Berus, Allemagne (10704): Température de l'air -20cm & Température de l'air -100cm: 14.08.2019 14:00:00 - 20.08.2019 14:00:00 (CEST)Berus, Allemagne (10704): Vitesse du vent & gusts: 14.08.2019 14:00:00 - 20.08.2019 14:00:00 (CEST)Berus, Allemagne (10704): Direction du vent: 14.08.2019 14:00:00 - 20.08.2019 14:00:00 (CEST)Berus, Allemagne (10704): reduced air pressure: 14.08.2019 14:00:00 - 20.08.2019 14:00:00 (CEST)Berus, Allemagne (10704): visibility: 14.08.2019 14:00:00 - 20.08.2019 14:00:00 (CEST)Berus, Allemagne (10704): Ensoleillement: 14.08.2019 14:00:00 - 20.08.2019 14:00:00 (CEST)Berus, Allemagne (10704): Quantités de précipitations: 14.08.2019 14:00:00 - 20.08.2019 14:00:00 (CEST)
Date & Time tt [°C] td [°C] tt 5cm [°C] tt -5cm [°C] tt -20cm [°C] tt -100cm [°C] ff [km/h] ff [knt] fx [km/h] fx [knt] dd ppp [hPa] vv [km] sd [min] rr [mm]
20.08.2019 14:00:00 18,6 7,7 21,8 22,0 18,1 19,2 6 3 10 5 ENE 1023,2 40 0 0,0
20.08.2019 13:00:00 17,6 9,6 19,8 20,3 17,8 19,3 5 3 8 5 ENE 1023,7 39 0 0,0
20.08.2019 12:00:00 16,0 9,4 18,3 18,6 17,5 19,3 6 4 10 5 NE 1023,9 46 0 0,0
20.08.2019 11:00:00 14,9 9,6 16,2 17,5 17,4 19,3 5 3 9 5 ENE 1023,7 34 0 0,0
20.08.2019 10:00:00 13,6 11,0 14,9 15,9 17,3 19,3 4 2 10 5 NNE 1023,1 49 0 0,0
20.08.2019 09:00:00 13,5 10,2 13,9 14,9 17,4 19,3 6 3 14 8 NNE 1023,0 47 0 0,0
20.08.2019 08:00:00 13,0 9,9 11,5 13,7 17,6 19,3 3 1 8 5 NNW 1022,9 46 1 0,0
20.08.2019 07:00:00 11,8 10,0 10,6 13,3 17,9 19,3 7 4 8 4 NNE 1022,3 22 0 0,0
20.08.2019 06:00:00 12,6 9,8 9,8 13,4 18,2 19,3 3 2 7 4 NE 1022,1 30 0 0,0
20.08.2019 05:00:00 13,7 10,1 9,8 13,8 18,5 19,3 4 2 7 4 NNW 1021,9 26 0 0,0
20.08.2019 04:00:00 12,6 10,1 10,5 14,1 18,9 19,3 5 3 11 6 NNE 1021,9 33 0 0,0
20.08.2019 03:00:00 15,7 8,6 12,4 14,5 19,2 19,3 7 4 12 7 NW 1021,3 62 0 0,0
20.08.2019 02:00:00 15,6 8,7 12,5 15,0 19,6 19,3 7 4 11 6 WNW 1021,7 64 0 0,0
20.08.2019 01:00:00 15,5 9,1 12,3 15,6 20,0 19,3 5 3 11 6 W 1021,8 64 0 0,0
20.08.2019 00:00:00 16,2 9,1 12,5 16,2 20,4 19,3 8 4 16 8 NW 1021,3 59 0 0,0
19.08.2019 23:00:00 16,7 9,4 14,8 17,0 20,9 19,3 11 6 16 9 NW 1020,8 47 0 0,0
19.08.2019 22:00:00 17,0 9,8 15,2 18,0 21,3 19,3 10 5 16 9 NW 1020,3 66 0 0,0
19.08.2019 21:00:00 17,6 9,8 16,1 19,3 21,6 19,3 9 5 24 13 WNW 1019,4 63 8 0,0
19.08.2019 20:00:00 19,0 9,8 17,9 21,3 21,8 19,3 12 6 21 11 W 1018,6 65 35 0,0
19.08.2019 19:00:00 20,8 9,9 22,6 23,1 21,8 19,3 5 3 23 12 WNW 1018,3 58 34 0,0
19.08.2019 18:00:00 21,4 10,7 23,1 25,1 21,6 19,3 14 7 24 13 W 1018,2 61 57 0,0
19.08.2019 17:00:00 21,8 11,0 23,9 25,4 21,3 19,3 9 5 29 15 W 1018,0 70 37 0,0
19.08.2019 16:00:00 21,2 11,2 23,6 25,6 20,9 19,3 10 6 27 15 W 1018,0 68 32 0,0
19.08.2019 15:00:00 22,7 11,0 27,4 25,5 20,5 19,3 13 7 27 14 SW 1017,7 75 32 0,0
19.08.2019 14:00:00 20,5 10,1 23,8 25,2 20,0 19,3 9 5 23 12 WNW 1017,8 63 21 0,0
19.08.2019 13:00:00 20,5 12,2 24,8 25,6 19,4 19,3 14 8 25 14 W 1017,8 48 49 0,0
19.08.2019 12:00:00 18,6 11,4 20,4 24,1 18,9 19,3 8 5 22 12 W 1017,8 50 53 0,0
19.08.2019 11:00:00 18,6 12,9 22,2 21,1 18,6 19,3 10 6 18 10 W 1017,5 55 46 0,0
19.08.2019 10:00:00 16,7 12,7 17,1 18,5 18,5 19,3 4 2 10 5 W 1017,2 47 18 0,0
19.08.2019 09:00:00 16,1 14,8 16,3 17,1 18,6 19,4 7 4 19 10 W 1017,1 29 8 0,0
19.08.2019 08:00:00 15,2 14,7 15,0 16,3 18,7 19,4 8 4 15 8 W 1016,8 12 3 0,0
19.08.2019 07:00:00 15,0 14,5 14,7 16,1 18,9 19,4 10 5 14 8 W 1016,0 14 0 0,0
19.08.2019 06:00:00 15,3 14,9 15,0 16,2 19,1 19,4 9 5 22 12 WSW 1015,7 9 0 0,0
19.08.2019 05:00:00 14,9 14,4 14,4 16,3 19,3 19,4 10 5 15 8 WSW 1015,7 15 0 0,0
19.08.2019 04:00:00 15,3 14,7 15,0 16,5 19,5 19,4 11 6 17 9 WSW 1015,7 32 0 0,0
19.08.2019 03:00:00 15,4 14,8 14,8 16,9 19,7 19,4 11 6 20 11 WSW 1014,7 27 0 0,0
19.08.2019 02:00:00 15,6 14,8 15,2 17,2 20,0 19,4 14 8 19 11 WSW 1014,8 56 0 0,0
19.08.2019 01:00:00 15,5 14,5 15,0 17,4 20,3 19,4 14 8 23 12 WSW 1014,3 68 0 0,0
19.08.2019 00:00:00 16,0 14,9 15,4 17,9 20,5 19,4 13 7 24 13 W 1013,5 75 0 0,0
18.08.2019 23:00:00 16,2 15,1 15,6 18,6 20,8 19,4 11 6 19 10 WSW 1012,8 75 0 0,0
18.08.2019 22:00:00 16,6 15,6 16,2 19,1 21,1 19,4 11 6 23 13 SW 1012,3 67 0 0,0
18.08.2019 21:00:00 17,5 16,4 16,9 19,9 21,3 19,4 10 5 26 14 WNW 1010,5 62 0 0,3
18.08.2019 20:00:00 18,1 16,8 17,5 20,7 21,5 19,4 19 10 35 19 WSW 1010,9 19 0 0,4
18.08.2019 19:00:00 19,1 17,3 18,5 21,8 21,7 19,4 21 11 40 22 WSW 1010,7 56 0 0,3
18.08.2019 18:00:00 20,0 16,9 18,7 23,1 21,6 19,4 28 15 54 29 W 1010,0 19 8 0,2
18.08.2019 17:00:00 26,1 16,7 27,6 25,4 21,4 19,4 30 16 48 26 SW 1007,4 64 32 0,0
18.08.2019 16:00:00 24,3 17,1 25,0 25,3 21,1 19,4 26 14 53 29 SW 1007,7 59 23 0,0
18.08.2019 15:00:00 24,9 17,3 27,1 25,0 20,8 19,4 33 18 50 27 SW 1007,6 62 24 0,0
18.08.2019 14:00:00 21,7 18,0 20,7 23,8 20,4 19,4 27 14 59 32 SW 1008,2 75 17 0,2
18.08.2019 13:00:00 24,6 17,4 26,3 25,0 19,9 19,4 29 16 58 31 SW 1007,0 75 39 0,0
18.08.2019 12:00:00 23,1 17,2 24,7 24,4 19,4 19,4 28 15 49 26 SW 1006,9 67 41 0,0
18.08.2019 11:00:00 22,1 18,1 24,5 22,7 19,1 19,4 27 14 44 24 SW 1007,2 65 37 0,0
18.08.2019 10:00:00 20,1 18,0 21,0 21,1 18,8 19,4 17 9 28 15 SSW 1007,4 42 31 0,0
18.08.2019 09:00:00 18,5 18,0 20,1 18,9 18,8 19,5 18 10 27 14 SSW 1007,8 27 9 0,0
18.08.2019 08:00:00 17,3 17,0 17,4 18,0 18,8 19,5 17 9 23 12 SSW 1008,5 0,5 0 0,0
18.08.2019 07:00:00 17,3 17,0 17,2 17,7 18,8 19,5 16 9 24 13 SSW 1008,9 0,3 0 0,0
18.08.2019 06:00:00 17,2 16,9 17,1 17,7 18,9 19,5 14 7 19 10 SSW 1009,0 0,3 0 0,0
18.08.2019 05:00:00 17,1 16,9 17,0 17,7 18,9 19,5 12 7 23 12 SW 1009,3 1,4 0 0,0
18.08.2019 04:00:00 17,1 16,7 17,0 17,6 19,0 19,5 16 8 29 15 SW 1009,3 20 0 0,0
18.08.2019 03:00:00 16,6 16,4 16,6 17,6 19,1 19,5 13 7 22 12 SW 1009,4 9 0 0,1
18.08.2019 02:00:00 16,4 16,1 16,4 17,6 19,1 19,5 18 10 24 13 SSW 1009,7 0,2 0 0,3
18.08.2019 01:00:00 16,8 16,5 16,8 17,6 19,3 19,5 15 8 20 11 SSW 1010,2 0,2 0 2,1
18.08.2019 00:00:00 16,7 16,4 16,7 17,6 19,4 19,5 13 7 17 9 SW 1010,5 0,3 0 4,7
17.08.2019 23:00:00 16,4 16,1 16,4 17,6 19,5 19,5 13 7 18 10 SSW 1011,0 0,2 0 2,4
17.08.2019 22:00:00 16,1 15,8 16,1 17,7 19,7 19,5 13 7 21 11 SSW 1011,5 0,2 0 2,7
17.08.2019 21:00:00 15,7 15,4 15,8 17,9 19,9 19,5 14 7 21 11 SSW 1011,6 0,4 0 1,7
17.08.2019 20:00:00 15,7 15,4 15,9 18,4 20,0 19,5 14 8 23 12 SW 1012,3 0,2 0 0,4
17.08.2019 19:00:00 15,9 15,5 16,1 18,7 20,1 19,5 14 8 31 17 SW 1012,4 9 0 1,6
17.08.2019 18:00:00 15,6 15,1 15,7 19,1 20,2 19,5 22 12 37 20 SW 1012,7 10 0 1,7
17.08.2019 17:00:00 16,2 15,2 16,2 19,9 20,2 19,5 19 10 32 17 SSW 1012,7 15 0 1,2
17.08.2019 16:00:00 16,7 13,9 16,2 20,7 20,1 19,5 23 13 40 22 SSW 1012,9 17 0 0,3
17.08.2019 15:00:00 18,8 13,5 19,8 21,0 20,0 19,5 21 11 37 20 SW 1012,0 61 0 0,0
17.08.2019 14:00:00 17,8 12,3 18,2 19,7 20,0 19,5 23 12 41 22 SSW 1012,6 29 0 0,0
17.08.2019 13:00:00 17,7 11,5 18,6 19,6 20,0 19,5 25 13 60 33 SW 1012,8 63 0 0,0
17.08.2019 12:00:00 18,3 12,7 19,5 19,9 20,0 19,5 32 17 50 27 SW 1012,3 57 0 0,0
17.08.2019 11:00:00 17,4 13,5 16,8 19,2 20,0 19,5 21 11 32 17 SW 1012,6 71 0 0,0
17.08.2019 10:00:00 16,6 14,2 16,7 19,0 20,1 19,5 14 8 21 11 SW 1012,7 54 0 0,0
17.08.2019 09:00:00 15,7 13,7 15,4 18,1 20,2 19,5 12 6 16 9 SSW 1012,7 70 0 0,4
17.08.2019 08:00:00 15,1 13,4 14,5 17,9 20,4 19,5 13 7 20 11 SW 1012,9 36 0 0,7
17.08.2019 07:00:00 16,9 11,4 16,4 18,3 20,6 19,5 14 7 21 11 SW 1012,3 64 0 0,0
17.08.2019 06:00:00 17,2 11,1 16,7 18,4 20,8 19,5 16 9 23 13 SW 1012,0 70 0 0,0
17.08.2019 05:00:00 17,1 11,0 16,6 18,7 21,1 19,5 17 9 24 13 SSW 1011,8 70 0 0,0
17.08.2019 04:00:00 17,1 11,0 16,6 19,0 21,3 19,5 15 8 22 12 SSW 1012,4 52 0 0,0
17.08.2019 03:00:00 17,4 10,8 16,9 19,3 21,6 19,5 14 8 21 12 SSW 1012,5 69 0 0,0
17.08.2019 02:00:00 18,0 10,5 17,1 19,6 21,9 19,5 13 7 22 12 SSW 1012,9 73 0 0,0
17.08.2019 01:00:00 18,4 10,5 17,5 20,2 22,3 19,5 16 8 22 12 SSW 1013,3 75 0 0,0
17.08.2019 00:00:00 18,6 10,5 17,8 21,0 22,6 19,6 14 8 21 11 SSW 1013,7 69 0 0,0
16.08.2019 23:00:00 18,7 10,7 17,9 21,8 23,0 19,6 13 7 20 11 SW 1014,1 66 0 0,0
16.08.2019 22:00:00 19,8 9,8 19,0 22,9 23,3 19,6 10 6 16 9 S 1013,7 65 0 0,0
16.08.2019 21:00:00 20,2 10,2 19,2 24,3 23,5 19,6 8 5 17 9 S 1013,8 48 0 0,0
16.08.2019 20:00:00 21,0 9,6 20,6 26,3 23,5 19,6 11 6 25 13 SSW 1014,0 75 16 0,0
16.08.2019 19:00:00 21,9 8,9 22,6 28,8 23,3 19,6 14 8 27 14 SSW 1014,3 65 51 0,0
16.08.2019 18:00:00 23,1 8,9 25,9 31,0 22,7 19,6 17 9 29 16 WSW 1014,7 75 59 0,0
16.08.2019 17:00:00 23,2 9,4 27,1 31,9 22,0 19,6 17 9 28 15 SSW 1015,4 71 59 0,0
16.08.2019 16:00:00 23,0 9,2 28,1 31,6 21,1 19,6 17 9 31 17 SW 1016,1 75 59 0,0
16.08.2019 15:00:00 22,3 10,1 27,9 29,1 20,4 19,6 16 9 27 15 WSW 1017,0 50 39 0,0
16.08.2019 14:00:00 19,9 10,2 22,7 28,2 19,6 19,6 14 8 26 14 WSW 1018,0 75 32 0,0
16.08.2019 13:00:00 20,6 10,7 25,7 27,3 18,8 19,6 19 10 31 17 SSW 1018,0 48 58 0,0
16.08.2019 12:00:00 18,6 10,4 21,5 24,5 18,1 19,6 16 8 27 15 WSW 1018,8 52 52 0,0
16.08.2019 11:00:00 18,1 11,6 21,9 22,7 17,6 19,6 16 9 24 13 SW 1019,4 56 57 0,0
16.08.2019 10:00:00 16,3 11,3 19,7 19,0 17,4 19,6 11 6 18 10 SSW 1020,0 44 60 0,0
16.08.2019 09:00:00 14,7 11,2 17,4 15,8 17,4 19,7 7 4 17 9 WSW 1020,1 47 60 0,0
16.08.2019 08:00:00 13,2 10,7 12,4 13,5 17,6 19,7 10 5 16 8 WNW 1020,2 39 58 0,0
16.08.2019 07:00:00 11,6 10,3 10,5 13,0 17,9 19,7 11 6 19 11 W 1020,2 37 2 0,0
16.08.2019 06:00:00 11,8 10,4 10,6 13,2 18,2 19,7 13 7 19 10 W 1020,0 39 0 0,0
16.08.2019 05:00:00 11,8 10,3 10,4 13,6 18,5 19,7 10 6 13 7 WSW 1019,7 40 0 0,0
16.08.2019 04:00:00 12,4 10,2 10,6 14,1 18,8 19,7 9 5 16 9 WSW 1019,8 52 0 0,0
16.08.2019 03:00:00 13,1 10,4 11,8 14,7 19,1 19,7 11 6 22 12 W 1019,8 50 0 0,0
16.08.2019 02:00:00 13,9 10,7 12,7 15,3 19,5 19,7 13 7 22 12 W 1019,6 52 0 0,0
16.08.2019 01:00:00 14,9 10,8 13,6 16,1 19,8 19,7 12 6 26 14 WSW 1019,3 55 0 0,0
16.08.2019 00:00:00 15,1 11,2 14,0 16,5 20,1 19,7 17 9 28 15 WSW 1019,0 58 0 0,0
15.08.2019 23:00:00 15,3 11,3 14,1 17,3 20,5 19,7 18 10 27 15 WSW 1018,4 51 0 0,0
15.08.2019 22:00:00 15,9 11,2 14,8 18,5 20,7 19,8 16 8 30 16 WSW 1017,8 61 0 0,0
15.08.2019 21:00:00 16,9 10,8 16,5 20,0 20,9 19,8 16 9 34 18 WSW 1016,7 59 0 0,0
15.08.2019 20:00:00 17,5 10,3 17,6 21,3 20,9 19,8 25 13 46 25 WSW 1016,1 73 8 0,0
15.08.2019 19:00:00 19,2 11,5 19,9 22,7 20,9 19,8 24 13 41 22 WSW 1014,9 62 13 0,0
15.08.2019 18:00:00 20,0 11,9 21,5 22,9 20,7 19,8 16 9 47 25 W 1014,4 75 13 0,0
15.08.2019 17:00:00 20,1 11,5 21,5 23,8 20,5 19,8 21 11 41 22 WSW 1014,2 63 12 0,0
15.08.2019 16:00:00 19,4 11,8 20,5 25,3 20,1 19,8 23 12 47 25 WSW 1014,0 75 17 0,0
15.08.2019 15:00:00 18,8 13,1 21,6 23,6 19,6 19,8 32 17 50 27 WSW 1013,9 71 18 0,0
15.08.2019 14:00:00 19,9 12,5 23,8 23,0 19,2 19,8 23 12 45 24 W 1013,5 57 2 0,0
15.08.2019 13:00:00 20,7 12,3 23,9 22,7 18,9 19,8 27 14 46 25 WSW 1012,8 64 21 0,0
15.08.2019 12:00:00 17,8 13,4 18,4 20,6 18,6 19,8 19 11 35 19 WSW 1013,3 75 20 0,0
15.08.2019 11:00:00 16,2 15,0 17,7 18,2 18,6 19,8 22 12 42 23 WSW 1013,4 53 1 0,2
15.08.2019 10:00:00 16,5 13,1 15,9 18,3 18,5 19,9 26 14 43 23 SW 1012,9 28 16 0,1
15.08.2019 09:00:00 14,8 13,5 14,7 16,5 18,6 19,9 17 9 25 13 SW 1013,3 51 0 0,0
15.08.2019 08:00:00 13,9 13,0 13,8 16,1 18,8 19,9 17 9 29 15 SSW 1013,5 49 0 0,2
15.08.2019 07:00:00 14,3 12,4 13,6 16,1 18,9 19,9 18 10 41 22 SW 1013,6 6 0 0,1
15.08.2019 06:00:00 15,6 10,7 15,2 16,3 19,1 19,9 13 7 24 13 SW 1013,0 72 0 0,0
15.08.2019 05:00:00 16,0 10,2 15,5 16,3 19,3 19,9 14 8 27 14 SW 1013,1 74 0 0,0
15.08.2019 04:00:00 16,0 10,0 15,5 16,4 19,5 19,9 17 9 30 16 SW 1013,8 75 0 0,0
15.08.2019 03:00:00 16,1 9,7 15,6 16,6 19,8 19,9 16 9 23 12 SW 1014,0 75 0 0,0
15.08.2019 02:00:00 15,7 9,6 15,1 16,6 20,1 20,0 15 8 21 11 SSW 1014,6 69 0 0,0
15.08.2019 01:00:00 15,3 9,6 14,1 16,9 20,5 20,0 13 7 20 11 SSW 1015,1 60 0 0,0
15.08.2019 00:00:00 15,9 9,5 14,4 17,6 20,9 20,0 13 7 21 12 SSW 1015,4 75 0 0,0
14.08.2019 23:00:00 16,8 9,4 15,3 18,5 21,3 20,0 14 8 20 11 SSW 1015,4 75 0 0,0
14.08.2019 22:00:00 17,9 9,2 16,1 19,8 21,6 20,0 12 6 19 10 S 1015,7 75 0 0,0
14.08.2019 21:00:00 18,7 8,9 17,1 21,6 21,8 20,0 13 7 19 10 SSW 1015,5 62 3 0,0
14.08.2019 20:00:00 19,9 9,0 19,1 23,9 21,7 20,0 12 7 21 11 SSW 1015,7 31 29 0,0
14.08.2019 19:00:00 20,5 9,4 21,2 26,0 21,4 20,0 10 5 21 11 SSW 1016,0 71 15 0,0
14.08.2019 18:00:00 21,7 9,4 23,5 27,5 20,9 20,0 10 5 20 11 SSW 1016,4 73 42 0,0
14.08.2019 17:00:00 20,6 9,1 22,5 26,6 20,4 20,0 5 3 23 12 SSW 1017,2 65 18 0,0
14.08.2019 16:00:00 21,8 9,5 26,7 27,1 19,7 20,1 14 8 24 13 S 1017,5 68 31 0,0
14.08.2019 15:00:00 20,1 10,0 23,2 25,3 19,1 20,1 11 6 19 10 SW 1018,4 64 12 0,0
14.08.2019 14:00:00 18,9 10,2 21,8 24,5 18,6 20,1 9 5 20 11 SW 1019,1 74 23 0,0

tt = Température de l'air
td = dewpoint
tt 5cm = Température de l'air 5cm
tt -5cm = Température de l'air -5cm
tt -20cm = Température de l'air -20cm
tt -100cm = Température de l'air -100cm
ff = Vitesse du vent
fx = gusts
dd = Direction du vent
ppp = reduced air pressure
vv = visibility
sd = Ensoleillement
rr = Quantités de précipitations

stations d'obs. à proximité